Simultaneous Nadir Overpasses (SNOs) Predictions

Prediction of SNOs between AURA and NPP Satellite Orbit:

Table of predicted SNOs for the next 14.0 days since TLE Epoch: 3/16/2024
Index Date (AURA) Time (AURA) Lat,Lon (AURA) SZA (AURA ) Date (NPP) Time (NPP) Lat,Lon (NPP) SZA (NPP ) Distance(km) Time Diff (sec)
1 03/18/2024 09:12:23 -80.40, 127.81 88.31 03/18/2024 09:11:28 -80.40, 127.85 88.27 0.67 55
2 03/18/2024 10:01:44 80.47, -63.79 91.56 03/18/2024 10:02:10 80.47, -63.93 91.56 2.55 26
3 03/20/2024 23:46:56 -80.49, -89.86 89.52 03/20/2024 23:46:52 -80.50, -89.72 89.55 2.61 4
4 03/23/2024 13:32:07 80.46,-116.50 89.51 03/23/2024 13:31:36 80.47,-116.37 89.51 2.55 31
5 03/23/2024 14:21:30 -80.52, 51.80 90.62 03/23/2024 14:22:19 -80.52, 51.69 90.64 2.09 49
6 03/26/2024 03:17:19 -80.41,-143.24 91.45 03/26/2024 03:16:21 -80.42,-143.21 91.41 0.66 58
7 03/26/2024 04:06:39 80.51, 25.42 88.37 03/26/2024 04:07:02 80.50, 25.29 88.38 2.57 23
8 03/28/2024 17:51:48 -80.49, -1.03 92.63 03/28/2024 17:51:44 -80.50, -0.93 92.65 1.96 4



Historial Predications of SNOs between AURA and NPP
